EDT,Max TemperatureF,Mean TemperatureF,Min TemperatureF,Max Dew PointF,MeanDew PointF,Min DewpointF,Max Humidity, Mean Humidity, Min Humidity, Max Sea Level PressureIn, Mean Sea Level PressureIn, Min Sea Level PressureIn, Max VisibilityMiles, Mean VisibilityMiles, Min VisibilityMiles, Max Wind SpeedMPH, Mean Wind SpeedMPH, Max Gust SpeedMPH,PrecipitationIn, CloudCover, Events, WindDirDegrees
2010-10-1,77,67,57,53,47,42,67,49,31,29.94,29.79,29.62,10,10,10,20,9,33,0.00,3,,352
2010-10-2,72,61,49,47,44,42,80,58,35,30.02,29.97,29.91,10,10,10,14,4,,0.00,0,,38
2010-10-3,70,60,50,49,46,44,86,64,42,30.07,29.98,29.93,10,10,10,16,7,20,0.00,3,,17
2010-10-4,67,60,52,45,44,42,77,60,42,30.16,30.11,30.06,10,10,10,13,6,17,0.00,6,,356
2010-10-5,65,56,46,44,39,33,86,60,34,30.22,30.17,30.14,10,10,10,24,7,28,0.00,2,,319
2010-10-6,70,57,44,43,39,36,76,53,30,30.14,30.04,29.94,10,10,10,22,9,29,0.00,1,,280
2010-10-7,83,67,51,50,43,38,64,46,28,30.02,29.97,29.89,10,10,10,17,10,25,0.00,0,,280
2010-10-8,77,63,49,48,42,39,74,51,27,30.14,30.07,30.02,10,10,10,9,4,13,0.00,0,,251
2010-10-9,83,66,49,52,45,41,80,52,24,30.07,30.02,29.98,10,10,10,12,3,16,0.00,0,,306
2010-10-10,85,69,53,52,48,44,77,51,25,30.03,29.98,29.91,10,10,10,9,3,12,0.00,0,,228
2010-10-11,85,71,57,54,52,50,80,56,31,29.96,29.91,29.86,10,10,10,12,5,15,0.00,0,,224
2010-10-12,86,70,54,55,50,45,89,57,25,29.92,29.88,29.85,10,10,10,16,5,20,T,1,Rain,257
2010-10-13,73,66,59,57,52,48,80,62,44,30.01,29.96,29.90,10,10,10,14,4,29,T,4,Rain,4
2010-10-14,72,61,50,57,51,35,90,61,31,29.95,29.89,29.82,10,7,1,20,7,26,0.52,6,Rain-Thunderstorm,320
2010-10-15,71,58,44,40,37,34,76,51,26,30.00,29.88,29.77,10,10,10,28,9,35,0.00,2,,278
2010-10-16,70,56,42,41,36,33,76,51,26,30.15,30.08,30.00,10,10,10,16,6,20,0.00,0,,301
2010-10-17,76,59,42,45,38,32,82,52,21,30.15,30.07,30.00,10,10,10,14,5,17,0.00,0,,253
2010-10-18,80,64,48,50,45,41,80,55,30,30.03,29.95,29.88,10,10,10,13,4,15,0.00,0,,215
2010-10-19,78,65,51,54,49,46,89,61,33,29.92,29.87,29.84,10,10,6,9,4,12,0.00,0,,222
2010-10-20,65,57,49,55,54,50,96,84,72,29.93,29.89,29.84,10,4,0,10,4,17,0.19,5,Fog-Rain,19
2010-10-21,77,61,45,52,43,32,93,57,21,29.94,29.85,29.75,10,8,0,28,9,35,0.00,0,Fog,251
2010-10-22,67,57,46,40,33,27,71,48,24,30.24,30.12,29.95,10,10,10,10,4,16,0.00,0,,357
2010-10-23,73,56,39,43,39,35,85,57,29,30.32,30.27,30.23,10,10,10,14,6,,0.00,0,,208
2010-10-24,76,63,50,55,50,41,78,58,38,30.25,30.15,30.08,10,10,10,12,9,,0.00,0,,207
2010-10-25,70,66,61,63,60,57,93,83,73,30.06,29.95,29.86,10,9,2,20,10,26,0.15,5,Rain,204
2010-10-26,78,70,62,68,64,59,93,80,67,29.94,29.89,29.81,10,6,0,23,12,29,0.76,7,Fog-Rain-Thunderstorm,186
2010-10-27,80,75,70,70,68,66,90,76,62,30.03,29.94,29.82,10,8,1,28,13,36,1.01,7,Rain-Thunderstorm,220
2010-10-28,77,66,55,68,58,35,90,66,42,30.03,29.99,29.93,10,10,8,15,8,21,0.00,3,,259
2010-10-29,62,54,46,36,33,30,65,48,30,30.22,30.14,30.01,10,10,10,20,7,23,0.00,0,,352
2010-10-30,63,50,37,41,35,31,85,61,36,30.26,30.15,29.98,10,10,10,18,8,23,0.00,0,,221
2010-10-31,73,59,44,43,39,35,83,55,27,30.10,29.99,29.93,10,10,10,16,7,21,0.00,0,,251